Grand Etang, Nova Scotia

4:55 AM ADT on April 22, 2018 (GMT -0300)
Grand Etang

Weather History for CWZQ - October, 2012

Change the Weather History Date:

Saturday, October 6, 2012

  Actual Average Record
Temperature  
Mean Temperature 58 °F -  
Max Temperature 65 °F - - ()
Min Temperature 50 °F - - ()
Degree Days  
Heating Degree Days 8    
Growing Degree Days 8 (Base 50)    
Moisture  
Dew Point 52 °F    
Average Humidity 79    
Maximum Humidity 93    
Minimum Humidity 67    
Precipitation  
Precipitation 0.00 in - - ()
Sea Level Pressure  
Sea Level Pressure 29.89 in    
Wind  
Wind Speed 11 mph ()    
Max Wind Speed 18 mph    
Max Gust Speed 28 mph    
T = Trace of Precipitation, MM = Missing Value Source: Averaged Metar Reports

Daily Weather History Graph

Daily Weather History Graph

Search for Another Location

Airport or City:

Astronomy

Oct. 06, 2012 Rise Set
Actual Time 7:10 AM ADT 6:33 PM ADT
Civil Twilight 6:39 AM ADT 7:03 PM ADT
Nautical Twilight 6:04 AM ADT 7:38 PM ADT
Astronomical Twilight 5:29 AM ADT 8:13 PM ADT
Moon 10:28 PM ADT (10/6) 1:17 PM ADT (10/6)
Length of Visible Light 12h 23m
Length of Day
11h 23m
Waning Gibbous, 66% of the Moon is Illuminated
Oct 6
Waning Gibbous
Oct 8
Last Quarter
Oct 15
New
Oct 22
First Quarter
Oct 29
Full

Hourly Weather History & Observations

Time (ADT) Temp. Dew Point Humidity Pressure Visibility Wind Dir Wind Speed Gust Speed Precip Events Conditions
12:00 AM 51.3 °F 49.3 °F 93% 29.92 in - SE 9.2 mph - N/A   Unknown
12:20 AM 51.3 °F 48.9 °F 92% - - SE 9.2 mph - N/A   Unknown
12:40 AM 51.3 °F 48.6 °F 90% - - SE 10.4 mph - N/A   Unknown
1:00 AM 51.8 °F 48.9 °F 90% 29.92 in - SE 10.4 mph - N/A   Unknown
1:20 AM 52.0 °F 48.7 °F 89% - - SE 10.4 mph - N/A   Unknown
1:40 AM 51.3 °F 48.2 °F 89% - - SE 8.1 mph - N/A   Unknown
2:00 AM 50.4 °F 47.7 °F 90% 29.93 in - South 10.4 mph - N/A   Unknown
2:20 AM 50.9 °F 48.0 °F 90% - - SE 9.2 mph - N/A   Unknown
2:40 AM 52.0 °F 49.1 °F 90% - - SE 10.4 mph - N/A   Unknown
3:00 AM 52.5 °F 49.5 °F 89% 29.92 in - SE 10.4 mph - N/A   Unknown
3:20 AM 52.3 °F 48.9 °F 88% - - SE 10.4 mph - N/A   Unknown
3:40 AM 52.2 °F 48.6 °F 88% - - SE 10.4 mph - N/A   Unknown
4:00 AM 52.7 °F 48.7 °F 86% 29.92 in - SE 10.4 mph - N/A   Unknown
4:20 AM 53.1 °F 49.1 °F 86% - - SE 9.2 mph - N/A   Unknown
5:00 AM 54.0 °F 50.0 °F 86% 29.92 in - SE 10.4 mph - N/A   Unknown
5:20 AM 54.1 °F 50.2 °F 86% - - SE 8.1 mph - N/A   Unknown
5:40 AM 54.1 °F 50.2 °F 86% - - SE 8.1 mph - N/A   Unknown
6:00 AM 54.7 °F 50.4 °F 85% 29.92 in - SE 10.4 mph - N/A   Unknown
6:20 AM 54.7 °F 50.9 °F 87% - - SE 8.1 mph - N/A   Unknown
6:40 AM 55.4 °F 51.3 °F 86% - - SSE 8.1 mph - N/A   Unknown
7:00 AM 55.8 °F 51.3 °F 85% 29.93 in - SSE 10.4 mph - N/A   Unknown
7:20 AM 56.5 °F 51.1 °F 82% - - SSE 9.2 mph - N/A   Unknown
7:40 AM 56.3 °F 51.3 °F 83% - - SSE 8.1 mph - N/A   Unknown
8:00 AM 56.8 °F 51.3 °F 82% 29.93 in - SSE 9.2 mph - N/A   Unknown
8:20 AM 57.4 °F 51.6 °F 81% - - SSE 8.1 mph - N/A   Unknown
8:40 AM 57.7 °F 51.6 °F 80% - - SSE 6.9 mph - N/A   Unknown
9:00 AM 58.6 °F 52.0 °F 79% 29.92 in - SSE 9.2 mph - N/A   Unknown
9:20 AM 58.6 °F 52.0 °F 79% - - South 8.1 mph - N/A   Unknown
9:40 AM 58.6 °F 52.3 °F 80% - - South 8.1 mph - N/A   Unknown
10:00 AM 59.0 °F 52.7 °F 80% 29.93 in - South 8.1 mph - N/A   Unknown
10:20 AM 60.1 °F 52.7 °F 77% - - South 9.2 mph - N/A   Unknown
10:40 AM 61.0 °F 53.1 °F 75% - - South 10.4 mph - N/A   Unknown
11:00 AM 61.5 °F 53.4 °F 75% 29.93 in - South 10.4 mph - N/A   Unknown
11:20 AM 61.5 °F 53.2 °F 74% - - South 10.4 mph 18.4 mph N/A   Unknown
11:40 AM 62.1 °F 53.4 °F 73% - - South 12.7 mph - N/A   Unknown
12:00 PM 63.1 °F 54.0 °F 72% 29.91 in - South 16.1 mph 21.9 mph N/A   Unknown
12:20 PM 63.9 °F 54.5 °F 72% - - SSE 17.3 mph 26.5 mph N/A   Unknown
12:40 PM 65.1 °F 54.9 °F 69% - - South 15.0 mph 24.2 mph N/A   Unknown
1:00 PM 64.4 °F 55.0 °F 72% 29.90 in - South 17.3 mph - N/A   Unknown
1:20 PM 64.8 °F 54.9 °F 70% - - SSE 16.1 mph 25.3 mph N/A   Unknown
1:40 PM 65.5 °F 54.1 °F 67% - - South 16.1 mph 24.2 mph N/A   Unknown
2:00 PM 65.3 °F 54.5 °F 68% 29.87 in - South 18.4 mph - N/A   Unknown
2:20 PM 64.6 °F 54.0 °F 68% - - South 17.3 mph 24.2 mph N/A   Unknown
2:40 PM 65.3 °F 54.9 °F 69% - - SSE 16.1 mph 21.9 mph N/A   Unknown
3:00 PM 65.5 °F 54.9 °F 68% 29.86 in - South 17.3 mph 25.3 mph N/A   Unknown
3:20 PM 65.1 °F 54.7 °F 69% - - SSE 18.4 mph 27.6 mph N/A   Unknown
3:40 PM 65.1 °F 54.7 °F 69% - - South 16.1 mph 25.3 mph N/A   Unknown
4:00 PM 65.7 °F 55.4 °F 69% 29.86 in - SSE 18.4 mph - N/A   Unknown
4:20 PM 65.8 °F 55.4 °F 69% - - South 11.5 mph 18.4 mph N/A   Unknown
4:40 PM 64.6 °F 55.2 °F 72% - - SSE 12.7 mph 23.0 mph N/A   Unknown
5:00 PM 63.5 °F 55.0 °F 74% 29.86 in - South 15.0 mph 21.9 mph N/A   Unknown
5:20 PM 63.0 °F 55.2 °F 76% - - SSE 11.5 mph 18.4 mph N/A   Unknown
5:40 PM 63.0 °F 55.2 °F 76% - - South 11.5 mph 19.6 mph N/A   Unknown
6:00 PM 62.6 °F 54.7 °F 75% 29.84 in - South 15.0 mph 20.7 mph N/A   Unknown
6:20 PM 61.7 °F 54.7 °F 78% - - South 13.8 mph 23.0 mph N/A   Unknown
6:40 PM 61.0 °F 54.5 °F 79% - - South 11.5 mph - N/A   Unknown
7:00 PM 60.4 °F 53.6 °F 78% 29.85 in - South 13.8 mph 20.7 mph N/A   Unknown
7:20 PM 60.3 °F 53.2 °F 78% - - South 15.0 mph 21.9 mph N/A   Unknown
7:40 PM 60.1 °F 53.1 °F 78% - - South 15.0 mph 21.9 mph N/A   Unknown
8:00 PM 60.4 °F 53.6 °F 78% 29.85 in - South 16.1 mph 26.5 mph N/A   Unknown
8:20 PM 60.6 °F 53.8 °F 78% - - South 15.0 mph 24.2 mph N/A   Unknown
8:40 PM 60.4 °F 53.8 °F 79% - - South 13.8 mph 21.9 mph N/A   Unknown
9:00 PM 60.3 °F 53.6 °F 79% 29.85 in - South 16.1 mph - N/A   Unknown
9:20 PM 60.4 °F 53.2 °F 77% - - South 16.1 mph 25.3 mph N/A   Unknown
9:40 PM 60.6 °F 53.2 °F 77% - - South 16.1 mph 21.9 mph N/A   Unknown
10:00 PM 60.6 °F 53.2 °F 77% 29.84 in - South 16.1 mph 24.2 mph N/A   Unknown
10:20 PM 60.6 °F 53.1 °F 76% - - South 17.3 mph 24.2 mph N/A   Unknown
10:40 PM 60.3 °F 53.1 °F 77% - - South 13.8 mph - N/A   Unknown
11:00 PM 60.4 °F 53.2 °F 77% 29.84 in - South 17.3 mph - N/A   Unknown
11:20 PM 60.4 °F 53.6 °F 78% - - South 15.0 mph 23.0 mph N/A   Unknown
11:40 PM 60.4 °F 53.6 °F 78% - - South 15.0 mph 20.7 mph N/A   Unknown